N624ML SCIE-SCTO

Flight info

Callsign N624ML
Flight time 0h 45m
Altitude 1500
Route VFR
Aircraft EC35/L-G/C

Departure

Time 2026-05-03 22:14
Airport Carriel Sur International Airport (SCIE)

Arrival

Time 2026-05-03 22:59
Airport Victoria Airport (SCTO)
Time Latitude Longitude Altitude Speed Heading
2026-05-03 22:07 -36.77248 -73.05583 46 ft 0 kts 360°
2026-05-03 22:13 -36.77238 -73.05582 72 ft 3 kts 16°
2026-05-03 22:13 -36.77167 -73.05514 160 ft 45 kts 28°
2026-05-03 22:13 -36.76834 -73.05134 392 ft 75 kts 71°
2026-05-03 22:14 -36.77040 -73.04508 607 ft 95 kts 137°
2026-05-03 22:14 -36.77753 -73.04215 639 ft 115 kts 163°
2026-05-03 22:14 -36.78643 -73.04076 436 ft 134 kts 179°
2026-05-03 22:14 -36.79577 -73.04122 358 ft 132 kts 180°
2026-05-03 22:15 -36.80494 -73.04211 286 ft 132 kts 194°
2026-05-03 22:15 -36.81345 -73.04600 367 ft 127 kts 201°
2026-05-03 22:15 -36.82200 -73.05008 347 ft 129 kts 200°
2026-05-03 22:15 -36.83052 -73.05409 330 ft 129 kts 200°
2026-05-03 22:16 -36.83931 -73.05720 311 ft 129 kts 181°
2026-05-03 22:16 -36.84817 -73.05577 319 ft 126 kts 169°
2026-05-03 22:16 -36.85702 -73.05399 307 ft 127 kts 169°
2026-05-03 22:16 -36.86565 -73.05225 340 ft 125 kts 169°
2026-05-03 22:17 -36.87417 -73.05056 370 ft 124 kts 168°
2026-05-03 22:17 -36.88277 -73.04883 408 ft 124 kts 170°
2026-05-03 22:17 -36.89138 -73.04713 453 ft 125 kts 169°
2026-05-03 22:17 -36.89988 -73.04541 526 ft 121 kts 169°
2026-05-03 22:18 -36.90799 -73.04347 658 ft 117 kts 163°
2026-05-03 22:18 -36.91589 -73.04106 808 ft 117 kts 164°
2026-05-03 22:18 -36.92382 -73.03851 931 ft 117 kts 164°
2026-05-03 22:18 -36.93164 -73.03598 1053 ft 117 kts 163°
2026-05-03 22:19 -36.93944 -73.03314 1176 ft 117 kts 159°
2026-05-03 22:19 -36.94716 -73.02959 1314 ft 118 kts 158°
2026-05-03 22:19 -36.95464 -73.02556 1427 ft 117 kts 155°
2026-05-03 22:19 -36.96207 -73.02116 1585 ft 118 kts 153°
2026-05-03 22:20 -36.96946 -73.01671 1715 ft 118 kts 152°
2026-05-03 22:20 -36.97692 -73.01215 1799 ft 121 kts 153°
2026-05-03 22:20 -36.98495 -73.00715 1588 ft 137 kts 153°
2026-05-03 22:20 -36.99339 -73.00185 1510 ft 133 kts 152°
2026-05-03 22:21 -37.00154 -72.99675 1490 ft 129 kts 154°
2026-05-03 22:21 -37.00958 -72.99174 1489 ft 127 kts 155°
2026-05-03 22:21 -37.01738 -72.98692 1494 ft 126 kts 153°
2026-05-03 22:21 -37.02532 -72.98202 1498 ft 127 kts 152°
2026-05-03 22:22 -37.03326 -72.97720 1505 ft 127 kts 153°
2026-05-03 22:22 -37.04128 -72.97227 1498 ft 127 kts 154°
2026-05-03 22:22 -37.04917 -72.96739 1469 ft 126 kts 154°
2026-05-03 22:22 -37.05705 -72.96259 1501 ft 128 kts 153°
2026-05-03 22:23 -37.06509 -72.95770 1524 ft 129 kts 154°
2026-05-03 22:23 -37.07330 -72.95262 1497 ft 130 kts 152°
2026-05-03 22:23 -37.08124 -72.94772 1495 ft 128 kts 153°
2026-05-03 22:23 -37.08935 -72.94280 1508 ft 127 kts 155°
2026-05-03 22:24 -37.09743 -72.93820 1483 ft 129 kts 154°
2026-05-03 22:24 -37.10565 -72.93356 1488 ft 129 kts 154°
2026-05-03 22:24 -37.11396 -72.92896 1496 ft 130 kts 154°
2026-05-03 22:24 -37.12228 -72.92435 1490 ft 130 kts 154°
2026-05-03 22:25 -37.13049 -72.91981 1483 ft 129 kts 156°
2026-05-03 22:25 -37.13877 -72.91524 1488 ft 128 kts 156°
2026-05-03 22:25 -37.14681 -72.91070 1482 ft 127 kts 155°
2026-05-03 22:25 -37.15502 -72.90610 1495 ft 128 kts 155°
2026-05-03 22:26 -37.16314 -72.90150 1498 ft 129 kts 155°
2026-05-03 22:26 -37.17138 -72.89686 1499 ft 129 kts 156°
2026-05-03 22:26 -37.17950 -72.89229 1483 ft 128 kts 155°
2026-05-03 22:26 -37.18770 -72.88779 1519 ft 127 kts 155°
2026-05-03 22:27 -37.19608 -72.88354 1492 ft 130 kts 158°
2026-05-03 22:27 -37.20450 -72.87927 1491 ft 130 kts 158°
2026-05-03 22:27 -37.21291 -72.87498 1500 ft 129 kts 157°
2026-05-03 22:27 -37.22135 -72.87081 1493 ft 130 kts 154°
2026-05-03 22:28 -37.22980 -72.86667 1508 ft 130 kts 156°
2026-05-03 22:28 -37.23817 -72.86244 1506 ft 130 kts 156°
2026-05-03 22:28 -37.24670 -72.85825 1498 ft 131 kts 156°
2026-05-03 22:28 -37.25523 -72.85409 1490 ft 132 kts 156°
2026-05-03 22:29 -37.26372 -72.84976 1504 ft 131 kts 158°
2026-05-03 22:29 -37.27223 -72.84560 1496 ft 131 kts 157°
2026-05-03 22:29 -37.28065 -72.84134 1494 ft 131 kts 155°
2026-05-03 22:29 -37.28916 -72.83697 1482 ft 130 kts 154°
2026-05-03 22:30 -37.29747 -72.83280 1495 ft 128 kts 159°
2026-05-03 22:30 -37.30584 -72.82865 1511 ft 129 kts 158°
2026-05-03 22:30 -37.31423 -72.82444 1488 ft 129 kts 158°
2026-05-03 22:30 -37.32256 -72.82026 1497 ft 128 kts 158°
2026-05-03 22:31 -37.33099 -72.81606 1502 ft 129 kts 154°
2026-05-03 22:31 -37.33948 -72.81203 1499 ft 130 kts 158°
2026-05-03 22:31 -37.34785 -72.80794 1506 ft 130 kts 158°
2026-05-03 22:31 -37.35651 -72.80389 1515 ft 132 kts 159°
2026-05-03 22:32 -37.36511 -72.79984 1518 ft 130 kts 158°
2026-05-03 22:32 -37.37358 -72.79580 1514 ft 129 kts 155°
2026-05-03 22:32 -37.38208 -72.79165 1499 ft 129 kts 155°
2026-05-03 22:32 -37.39018 -72.78691 1489 ft 129 kts 153°
2026-05-03 22:33 -37.39831 -72.78195 1503 ft 128 kts 152°
2026-05-03 22:33 -37.40633 -72.77714 1488 ft 129 kts 153°
2026-05-03 22:33 -37.41448 -72.77212 1519 ft 129 kts 155°
2026-05-03 22:33 -37.42254 -72.76717 1511 ft 128 kts 150°
2026-05-03 22:34 -37.43068 -72.76239 1512 ft 127 kts 150°
2026-05-03 22:34 -37.43866 -72.75762 1508 ft 128 kts 152°
2026-05-03 22:34 -37.44677 -72.75288 1492 ft 127 kts 151°
2026-05-03 22:34 -37.45477 -72.74817 1515 ft 128 kts 146°
2026-05-03 22:35 -37.46289 -72.74355 1509 ft 127 kts 151°
2026-05-03 22:35 -37.47089 -72.73899 1515 ft 125 kts 150°
2026-05-03 22:35 -37.47892 -72.73449 1525 ft 126 kts 150°
2026-05-03 22:35 -37.48697 -72.72990 1507 ft 126 kts 151°
2026-05-03 22:36 -37.49492 -72.72538 1511 ft 126 kts 151°
2026-05-03 22:36 -37.50294 -72.72086 1505 ft 126 kts 150°
2026-05-03 22:36 -37.51102 -72.71630 1517 ft 126 kts 150°
2026-05-03 22:36 -37.51910 -72.71171 1514 ft 127 kts 150°
2026-05-03 22:37 -37.52713 -72.70712 1512 ft 128 kts 151°
2026-05-03 22:37 -37.53532 -72.70237 1516 ft 129 kts 151°
2026-05-03 22:37 -37.54344 -72.69754 1513 ft 129 kts 153°
2026-05-03 22:37 -37.55163 -72.69262 1520 ft 130 kts 152°
2026-05-03 22:38 -37.55987 -72.68764 1525 ft 131 kts 151°
2026-05-03 22:38 -37.56810 -72.68265 1521 ft 131 kts 150°
2026-05-03 22:38 -37.57634 -72.67774 1496 ft 131 kts 152°
2026-05-03 22:38 -37.58450 -72.67282 1497 ft 128 kts 151°
2026-05-03 22:39 -37.59259 -72.66793 1493 ft 128 kts 151°
2026-05-03 22:39 -37.60068 -72.66328 1504 ft 127 kts 155°
2026-05-03 22:39 -37.60919 -72.65916 1514 ft 128 kts 161°
2026-05-03 22:39 -37.61800 -72.65583 1511 ft 129 kts 161°
2026-05-03 22:40 -37.62662 -72.65215 1504 ft 129 kts 156°
2026-05-03 22:40 -37.63512 -72.64812 1497 ft 129 kts 157°
2026-05-03 22:40 -37.64351 -72.64410 1504 ft 127 kts 154°
2026-05-03 22:40 -37.65165 -72.63982 1502 ft 126 kts 155°
2026-05-03 22:41 -37.65979 -72.63582 1504 ft 127 kts 156°
2026-05-03 22:41 -37.66808 -72.63174 1506 ft 127 kts 155°
2026-05-03 22:41 -37.67633 -72.62769 1502 ft 127 kts 154°
2026-05-03 22:41 -37.68465 -72.62367 1504 ft 127 kts 156°
2026-05-03 22:42 -37.69297 -72.61975 1501 ft 127 kts 157°
2026-05-03 22:42 -37.70122 -72.61578 1502 ft 127 kts 154°
2026-05-03 22:42 -37.70950 -72.61166 1504 ft 127 kts 157°
2026-05-03 22:42 -37.71777 -72.60778 1505 ft 127 kts 157°
2026-05-03 22:43 -37.72602 -72.60387 1507 ft 126 kts 157°
2026-05-03 22:43 -37.73426 -72.59988 1506 ft 126 kts 156°
2026-05-03 22:43 -37.74251 -72.59587 1509 ft 126 kts 158°
2026-05-03 22:43 -37.75066 -72.59197 1506 ft 126 kts 156°
2026-05-03 22:44 -37.75885 -72.58793 1500 ft 126 kts 156°
2026-05-03 22:44 -37.76699 -72.58398 1501 ft 125 kts 156°
2026-05-03 22:44 -37.77518 -72.58007 1503 ft 124 kts 156°
2026-05-03 22:44 -37.78318 -72.57600 1506 ft 124 kts 154°
2026-05-03 22:45 -37.79127 -72.57179 1502 ft 125 kts 154°
2026-05-03 22:45 -37.79933 -72.56773 1499 ft 124 kts 155°
2026-05-03 22:45 -37.80740 -72.56381 1505 ft 123 kts 156°
2026-05-03 22:45 -37.81551 -72.56003 1503 ft 123 kts 157°
2026-05-03 22:46 -37.82334 -72.55576 1492 ft 123 kts 143°
2026-05-03 22:46 -37.83017 -72.54952 1505 ft 121 kts 140°
2026-05-03 22:46 -37.83659 -72.54252 1505 ft 120 kts 133°
2026-05-03 22:46 -37.84311 -72.53587 1501 ft 121 kts 141°
2026-05-03 22:47 -37.85025 -72.52979 1503 ft 123 kts 145°
2026-05-03 22:47 -37.85743 -72.52422 1502 ft 122 kts 147°
2026-05-03 22:47 -37.86506 -72.51852 1496 ft 134 kts 145°
2026-05-03 22:47 -37.87313 -72.51258 1515 ft 133 kts 146°
2026-05-03 22:48 -37.88110 -72.50665 1514 ft 134 kts 145°
2026-05-03 22:48 -37.88925 -72.50067 1513 ft 134 kts 145°
2026-05-03 22:48 -37.89729 -72.49466 1508 ft 133 kts 145°
2026-05-03 22:48 -37.90528 -72.48872 1512 ft 133 kts 145°
2026-05-03 22:49 -37.91314 -72.48271 1511 ft 132 kts 145°
2026-05-03 22:49 -37.92122 -72.47677 1511 ft 133 kts 148°
2026-05-03 22:49 -37.92939 -72.47099 1512 ft 133 kts 147°
2026-05-03 22:49 -37.93746 -72.46533 1506 ft 133 kts 148°
2026-05-03 22:50 -37.94551 -72.45960 1501 ft 133 kts 148°
2026-05-03 22:50 -37.95363 -72.45396 1502 ft 133 kts 147°
2026-05-03 22:50 -37.96176 -72.44824 1500 ft 134 kts 148°
2026-05-03 22:50 -37.96999 -72.44242 1510 ft 133 kts 147°
2026-05-03 22:51 -37.97815 -72.43671 1510 ft 133 kts 148°
2026-05-03 22:51 -37.98634 -72.43099 1513 ft 133 kts 147°
2026-05-03 22:51 -37.99461 -72.42529 1500 ft 133 kts 147°
2026-05-03 22:51 -38.00279 -72.41973 1507 ft 132 kts 148°
2026-05-03 22:52 -38.01094 -72.41409 1511 ft 132 kts 145°
2026-05-03 22:52 -38.01932 -72.40835 1508 ft 133 kts 147°
2026-05-03 22:52 -38.02751 -72.40249 1502 ft 132 kts 145°
2026-05-03 22:52 -38.03553 -72.39641 1501 ft 135 kts 145°
2026-05-03 22:53 -38.04369 -72.39017 1493 ft 135 kts 146°
2026-05-03 22:53 -38.05182 -72.38386 1493 ft 135 kts 145°
2026-05-03 22:53 -38.06003 -72.37746 1497 ft 136 kts 145°
2026-05-03 22:53 -38.06813 -72.37118 1498 ft 136 kts 144°
2026-05-03 22:54 -38.07637 -72.36486 1491 ft 137 kts 146°
2026-05-03 22:54 -38.08461 -72.35853 1491 ft 137 kts 146°
2026-05-03 22:54 -38.09298 -72.35206 1488 ft 138 kts 146°
2026-05-03 22:54 -38.10127 -72.34564 1489 ft 138 kts 144°
2026-05-03 22:55 -38.10961 -72.33924 1492 ft 137 kts 145°
2026-05-03 22:55 -38.11803 -72.33275 1493 ft 137 kts 145°
2026-05-03 22:55 -38.12635 -72.32661 1488 ft 138 kts 152°
2026-05-03 22:55 -38.13614 -72.32645 1515 ft 139 kts 186°
2026-05-03 22:56 -38.14597 -72.32863 1498 ft 141 kts 188°
2026-05-03 22:56 -38.15560 -72.33074 1500 ft 141 kts 187°
2026-05-03 22:56 -38.16546 -72.33291 1493 ft 141 kts 187°
2026-05-03 22:56 -38.17512 -72.33506 1499 ft 140 kts 187°
2026-05-03 22:57 -38.18504 -72.33726 1495 ft 141 kts 187°
2026-05-03 22:57 -38.19489 -72.33953 1489 ft 142 kts 189°
2026-05-03 22:57 -38.20454 -72.34236 1458 ft 131 kts 194°
2026-05-03 22:57 -38.21312 -72.34370 1610 ft 109 kts 181°
2026-05-03 22:58 -38.22069 -72.34502 1460 ft 104 kts 196°
2026-05-03 22:58 -38.22755 -72.34808 1397 ft 97 kts 204°
2026-05-03 22:58 -38.23367 -72.35148 1440 ft 92 kts 205°
2026-05-03 22:58 -38.23966 -72.35417 1429 ft 88 kts 197°
2026-05-03 22:59 -38.24577 -72.35571 1375 ft 82 kts 171°
2026-05-03 22:59 -38.24850 -72.35060 1334 ft 67 kts 65°
2026-05-03 22:59 -38.24677 -72.34950 1288 ft 31 kts 296°
2026-05-03 22:59 -38.24796 -72.35162 1277 ft 18 kts 128°
2026-05-03 23:00 -38.24812 -72.35091 1239 ft 15 kts 79°
2026-05-03 23:00 -38.24788 -72.34963 1217 ft 16 kts 71°
2026-05-03 23:00 -38.24752 -72.34813 1191 ft 13 kts 30°
2026-05-03 23:00 -38.24671 -72.34772 1167 ft 8 kts 77°
2026-05-03 23:01 -38.24665 -72.34745 1162 ft 0 kts 112°